EHI
0 0 0 0 0 0 0 0 0 0 0 0 0 0 0 0 0 0 0 0 0 0 0 0 0 0 0 0 0 0 0 0 0 0 0 0 0 0 0 0 0 0 0
0 0 0 0 0 0 0 0 0 0 0 0 0 0 0 0 0 0 0 0 0 0 0 0 0 0 0 0 0 0 0 0 0 0 0 0 0 0 0 0 0 0 0
0 0 0 0 0 0 0 0 0 0 0 0 0 0 0 0 0 0 0 0 0 0 0 0 0 0 0 0 0 0 0 0 0 0 0 0 0 0 0 0 0 0 0
0 0 0 0 0 0 0 0 0 0 0 0 0 0 0 0 0 0 0 0 0 0 0 0 0 0 0 0 0 0 0 0 0 0 0 0 0 0 0 0 0 0 0
0 0 0 0 0 0 0 0 0 0 0 0 0 0 0 0 0 0 0 0 0 0 0 0 0 0 0 0 0 0 0 0 0 0 0 0 0 0 0 0 0 0 0
0 0 0 0 0 0 0 0 0 0 0 0 0 0 0 0 0 0 0 0 0 0 0 0 0 0 0 0 0 0 0 0 0 0 0 0 0 0 0 0 0 0 0
0 0 0 0 0 0 0 0 0 0 0 0 0 0 0 0 0 0 0 0 0 0 0 0 0 0 0 0 0 0 0 0 0 0 0 0 0 0 0 0 0 0 0
0 0 0 0 0 0 0 0 0 0 0 0 0 0 0 0 0 0 0 0 0 0 0 0 0 0 0 0 0 0 0 0 0 0 0 0 0 0 0 0 0 0 0
0 0 0 0 0 0 0 0 0 0 0 0 0 0 0 0 0 0 0 0 0 0 0 0 0 0 0 0 0 0 0 0 0 0 0 0 0 0 0 0 0 0 0
0 0 0 0 0 0 0 0 0 0 0 0 0 0 0 0 0 0 0 0 0 0 0 0 0 0 0 0 0 0 0 0 0 0 0 0 0 0 0 0 0 0 0
0 0 0 0 0 0 0 0 0 0 0 0 0 0 0 0 0 0 0 0 0 0 0 0 0 0 0 0 0 0 0 0 0 0 0 0 0 0 0 0 0 0 0
0 0 0 0 0 0 0 0 0 0 0 0 0 0 0 0 0 0 0 0 0 0 0 0 0 0 0 0 0 0 0 0 0 0 0 0 0 0 0 0 0 0 0
0 0 0 0 0 0 0 0 0 0 0 0 0 0 0 0 0 0 0 0 0 0 0 0 0 0 0 0 0 0 0 0 0 0 0 0 0 0 0 0 0 0 0
0 0 0 0 0 0 0 0 0 0 0 0 0 0 0 0 0 0 0 0 0 0 0 0 0 0 0 0 0 0 0 0 0 0 0 0 0 0 0 0 0 0 0
0 0 0 0 0 0 0 0 0 0 0 0 0 0 0 0 0 0 0 0 0 0 0 0 0 0 0 0 0 0 0 0 0 0 0 0 0 0 0 0 0 0 0
0 0 0 0 0 0 0 0 0 0 0 0 0 0 0 0 0 0 0 0 0 0 0 0 0 0 0 0 0 0 0 0 0 0 0 0 0 0 0 0 0 0 0
0 0 0 0 0 0 0 0 0 0 0 0 0 0 0 0 0 0 0 0 0 0 0 0 0 0 0 0 0 0 0 0 0 0 0 0 0 0 0 0 0 0 0
0 0 0 0 0 0 0 0 0 0 0 0 0 0 0 0 0 0 0 0 0 0 0 0 0 0 0 0 0 0 0 0 0 0 0 0 0 0 0 0 0 0 0
0 0 0 0 0 0 0 0 0 0 0 0 0 0 0 0 0 0 0 0 0 0 0 0 0 0 0 0 0 0 0 0 0 0 0 0 0 0 0 0 0 0 0
0 0 0 0 0 0 0 0 0 0 0 0 0 0 0 0 0 0 0 0 0 0 0 0 0 0 0 0 0 0 0 0 0 0 0 0 0 0 0 0 0 0 0
0 0 0 0 0 0 0 0 0 0 0 0 0 0 0 0 0 0 0 0 0 0 0 0 0 0 0 0 0 0 0 0 0 0 0 0 0 0 0 0 0 0 0
0 0 0 0 0 0 0 0 0 0 0 0 0 0 0 0 0 0 0 0 0 0 0 0 0 0 0 0 0 0 0 0 0 0 0 0 0 0 0 0 0 0 0
0 0 0 0 0 0 0 0 0 0 0 0 0 0 0 0 0 0 0 0 0 0 0 0 0 0 0 0 0 0 0 0 0 0 0 0 0 0 0 0 0 0 0
0 0 0 0 0 0 0 0 0 0 0 0 0 0 0 0 0 0 0 0 0 0 0 0 0 0 0 0 0 0 0 0 0 0 0 0 0 0 0 0 0 0 0
0 0 0 0 0 0 0 0 0 0 0 0 0 0 0 0 0 0 0 0 0 0 0 0 0 0 0 0 0 0 0 0 0 0 0 0 0 0 0 0 0 0 0
0 0 0 0 0 0 0 0 0 0 0 0 0 0 0 0 0 0 0 0 0 0 0 0 0 0 0 0 0 0 0 0 0 0 0 0 0 0 0 0 0 0 0
Wind_Speed
0 2 1 1 1 1 2 2 3 4 5 5 4 5 6 6 6 6 5 10 12 14 18 20 21 22 23 24 25 26 26 27 27 28 28 28 28 28 29 29 29 29 28
2 2 2 3 3 3 3 3 4 4 4 4 5 6 6 6 6 6 6 7 11 13 16 19 21 21 22 23 25 26 26 27 28 29 29 30 30 29 30 31 31 31 31
3 2 2 3 3 3 4 3 4 4 4 4 5 6 5 6 7 7 7 6 6 10 13 17 19 20 21 22 23 24 25 26 27 28 29 30 30 30 31 32 32 33 33
5 4 4 4 4 4 4 4 4 4 5 5 5 5 5 6 8 7 6 7 5 5 7 11 14 17 20 21 23 24 25 25 25 27 28 30 31 31 33 34 34 34 35
8 6 5 5 6 4 4 5 4 4 5 5 6 6 6 7 7 8 7 7 7 6 5 9 13 14 16 20 23 25 25 25 25 26 27 28 29 31 33 35 36 36 37
9 6 5 6 6 4 5 5 6 6 4 5 8 7 8 8 6 5 7 8 9 9 9 9 9 11 16 20 23 25 26 26 26 26 27 28 29 30 31 32 34 36 38
8 7 5 5 6 5 5 6 5 6 5 5 4 6 7 6 4 8 10 9 8 9 9 10 8 8 9 17 20 24 27 28 28 27 27 27 28 29 30 31 31 33 35
7 7 7 5 5 5 6 6 5 4 4 5 4 5 5 6 5 10 7 6 8 6 8 11 10 10 9 7 12 21 24 27 27 27 27 27 27 27 28 29 30 30 31
7 7 7 6 6 5 4 5 5 5 4 5 4 3 4 5 8 5 6 8 6 7 8 8 10 9 10 9 9 14 19 24 27 28 28 27 27 28 29 29 29 29 29
7 6 6 6 5 4 5 5 6 4 5 4 4 3 4 7 6 7 5 5 9 9 8 10 9 10 11 9 11 17 21 23 28 29 29 29 30 30 30 31 31 31 31
6 6 6 5 5 4 4 5 5 5 3 4 4 4 6 6 6 10 12 7 6 6 6 7 8 9 10 10 9 15 25 30 31 32 33 33 33 32 33 33 32 33 33
4 5 5 5 4 3 4 4 4 6 5 5 4 4 5 5 7 8 14 15 11 6 6 6 7 8 9 9 14 23 28 31 33 34 35 36 35 34 33 33 34 35 35
3 4 5 4 4 4 4 4 4 6 6 6 5 5 5 6 7 8 11 14 16 10 7 6 6 6 10 8 9 22 25 30 31 34 35 36 36 35 35 35 36 36 36
3 4 4 4 5 5 5 5 4 5 6 6 8 7 6 6 6 7 8 12 17 15 9 8 5 6 7 7 13 24 15 27 31 34 35 36 36 36 36 36 36 36 35
3 4 4 5 5 5 5 6 4 6 7 6 7 8 7 6 6 6 6 7 11 19 18 12 8 8 6 7 15 11 10 23 33 34 34 34 34 35 35 35 35 35 35
4 4 5 5 6 6 6 5 5 6 7 7 7 8 8 7 6 6 6 6 6 11 19 15 12 10 11 14 21 14 11 30 31 32 33 33 34 35 36 36 36 36 35
4 4 5 5 6 6 6 6 7 9 8 8 9 11 11 11 8 7 6 6 6 7 15 16 13 12 13 14 14 10 12 12 13 27 32 34 35 35 35 35 35 35 34
4 5 5 6 7 7 7 7 9 9 8 10 12 12 13 12 11 9 7 7 7 8 12 19 16 13 15 15 15 14 15 14 10 23 31 34 35 35 35 35 35 35 35
5 5 5 6 7 7 7 7 8 7 8 10 12 13 14 14 13 9 8 8 8 11 10 15 17 14 13 13 15 16 14 10 13 19 26 29 31 34 35 35 35 34 33
5 6 6 6 7 7 8 8 7 7 8 9 11 13 14 14 13 11 11 10 10 12 12 14 15 14 14 14 12 12 13 8 10 14 19 23 27 32 33 33 33 33 32
7 6 6 7 7 7 8 10 8 9 8 10 12 13 14 19 23 19 16 12 13 12 13 14 15 15 15 13 12 11 15 14 11 10 12 13 13 13 15 23 28 30 32
6 6 7 7 8 9 18 23 17 8 7 10 13 13 14 16 19 26 28 28 25 19 17 16 16 17 18 16 14 13 15 17 18 7 9 14 12 13 13 11 22 30 30
6 7 7 7 8 10 21 23 22 12 8 9 12 13 14 15 21 14 21 25 21 26 27 20 18 18 19 17 17 18 17 18 18 13 13 16 11 12 11 14 27 30 30
6 7 7 8 8 12 21 22 23 11 8 9 11 13 14 14 16 21 17 16 15 15 20 17 14 16 17 16 17 18 18 18 15 11 11 15 11 12 13 12 23 30 31
7 7 8 8 9 11 19 22 22 8 8 9 11 13 16 16 24 30 21 18 18 14 20 27 29 27 31 31 25 15 14 15 16 11 7 11 13 13 12 12 17 26 25
7 8 8 8 8 8 17 22 23 7 9 10 11 12 19 23 28 31 21 18 17 15 15 16 17 19 17 18 25 16 13 15 16 14 8 9 13 12 11 8 8 7 12
Wind_Direction
69 38 350 331 297 305 299 288 291 300 310 313 316 321 317 305 296 292 285 281 273 262 270 275 274 274 274 274 270 266 262 260 259 258 257 256 254 250 246 243 241 240 239
58 38 351 356 352 346 342 339 333 334 327 325 318 303 291 293 292 296 293 293 290 277 272 278 280 280 279 279 279 277 271 264 260 257 255 254 254 253 251 247 243 241 240
70 51 34 21 8 5 2 359 347 336 327 324 316 315 313 305 295 289 284 278 277 276 271 276 282 284 283 283 282 283 281 278 272 265 260 256 253 251 251 250 248 244 241
56 57 47 25 15 20 13 2 355 352 341 331 322 313 307 297 290 287 290 285 279 277 279 280 284 287 288 288 287 286 283 281 280 277 273 268 262 256 252 250 249 247 245
47 56 46 25 16 27 17 4 5 359 339 336 327 319 315 304 298 305 309 319 329 333 334 327 320 309 299 298 299 297 293 288 284 282 281 278 274 269 264 258 253 250 248
41 38 45 33 17 24 17 11 2 353 344 343 327 320 303 296 303 336 344 346 339 339 343 339 335 328 325 320 316 313 308 304 299 294 290 286 283 280 276 271 265 260 255
46 42 33 34 22 23 24 12 4 349 345 337 330 317 296 305 348 1 342 331 329 334 340 336 326 323 318 317 316 313 311 308 305 303 301 297 293 290 288 284 280 274 268
43 45 36 31 21 21 22 8 8 355 343 347 343 327 328 319 358 337 304 322 316 321 328 321 315 309 304 303 304 310 310 308 305 303 303 303 302 301 299 296 293 289 284
46 41 38 33 23 26 17 2 12 3 341 334 350 340 333 308 314 272 330 306 313 327 312 306 303 306 312 312 309 306 304 305 304 301 299 299 300 301 301 300 300 299 298
57 38 36 34 29 27 18 1 5 345 345 329 327 336 300 298 304 302 296 299 311 307 307 311 316 313 309 307 303 306 309 311 309 304 301 299 298 297 297 298 299 301 302
63 40 32 29 31 26 9 355 348 335 327 317 316 313 307 303 296 303 301 296 293 289 300 313 312 307 305 306 308 311 317 316 311 307 304 301 298 297 297 298 300 301 301
55 38 27 19 23 16 353 341 337 325 313 307 305 301 298 299 305 302 301 305 302 293 296 297 297 301 308 310 312 316 315 312 309 306 303 300 297 296 296 297 298 298 297
40 24 19 7 4 354 342 340 331 316 307 308 301 293 291 290 293 295 297 302 302 299 291 280 283 299 308 307 309 311 310 309 307 305 303 300 300 300 298 297 295 294 293
35 14 6 359 354 347 341 335 321 313 311 306 305 301 295 289 287 289 295 304 305 303 296 289 286 292 290 293 300 306 306 307 306 303 301 300 299 298 296 294 292 290 289
22 10 359 353 343 337 332 328 316 310 306 300 297 293 289 284 282 282 286 293 299 304 304 305 300 294 292 294 297 299 298 303 301 298 298 299 298 297 296 295 293 291 289
13 356 351 342 332 326 324 322 315 308 306 302 300 297 295 294 289 286 284 282 284 294 298 302 304 304 304 303 301 298 292 297 297 297 297 297 297 295 294 292 290 288 287
359 349 340 331 325 320 322 321 318 312 306 308 311 308 304 302 298 294 290 287 284 287 294 299 299 300 299 299 297 286 286 283 286 295 299 299 296 293 292 291 291 290 289
345 335 329 324 320 319 318 315 313 310 313 320 315 309 307 308 303 298 292 292 293 292 291 295 297 297 295 294 293 289 294 291 291 298 299 298 297 297 296 295 294 292 291
328 322 320 316 311 309 307 306 304 308 323 315 310 309 308 305 301 297 298 295 292 293 288 291 294 295 293 292 292 291 290 287 294 298 300 298 297 296 295 293 293 292 291
316 310 306 300 299 300 302 300 301 314 307 305 307 305 303 301 300 301 298 290 292 294 293 292 294 297 296 293 292 298 298 288 292 298 294 292 292 294 293 293 294 294 293
306 297 296 297 298 302 303 309 313 311 308 308 305 301 300 302 304 305 304 304 303 300 301 300 299 301 301 304 303 301 301 301 290 288 287 287 288 285 286 288 289 288 287
294 296 299 300 302 308 315 316 316 309 306 307 306 304 301 301 304 309 310 307 307 308 308 304 303 302 303 303 302 301 301 300 297 286 280 289 287 284 283 279 283 287 290
302 307 305 306 304 306 315 316 317 318 306 302 302 304 307 308 312 303 301 307 310 307 306 303 300 300 301 302 301 299 296 294 295 301 297 291 287 287 289 292 296 296 295
308 307 306 303 301 306 316 319 319 317 297 294 299 302 304 305 305 306 306 310 305 302 301 301 295 296 299 299 296 299 300 298 292 285 284 290 294 291 293 290 293 291 290
309 304 300 301 301 306 317 319 319 305 299 299 301 305 306 304 305 312 315 309 307 304 308 307 307 306 307 308 308 305 302 299 299 297 280 286 293 293 288 284 283 285 288
303 303 303 302 302 305 316 321 322 309 309 308 306 304 307 310 311 315 314 311 311 310 310 311 309 306 303 299 303 301 300 299 299 298 284 281 290 295 291 265 259 275 285